Location: Wilsall
(45.9940°N, 110.6590°W)
Time: 11:53:30
(UTC-06:00)

Daily predictions for brighter satellites

Satellite Brightness Start Highest point End
(mag) Time Altitude Azimuth Time Altitude Azimuth Time Altitude Azimuth
BREEZE-M DEB (TANK) 3.2 20:56:59 10° W 20:59:58 86° S 21:07:43 10° E
SAR-Lupe-1 4.5 20:56:51 10° SE 21:00:17 45° ENE 21:03:44 10° N
Lacrosse 4 Rocket 2.8 20:56:28 10° NW 21:00:32 40° WSW 21:04:40 10° S
Cosmos 2360 Rocket 2.8 20:56:02 10° S 21:01:06 36° ESE 21:06:13 10° NE
Cosmos 1869 3.7 20:57:58 10° SSW 21:01:53 67° W 21:05:50 10° N
Cosmos 1980 Rocket 3.9 20:56:46 10° WSW 21:02:05 39° NW 21:07:27 10° NNE
Helios 1B rocket 2.8 20:58:15 10° NNE 21:02:10 42° E 21:06:04 10° S
COSMOS 2428 4.1 21:00:15 10° SE 21:03:52 17° E 21:07:28 10° ENE
Cosmos 1655 Rocket 4.1 20:58:02 10° N 21:04:28 76° E 21:10:49 10° SSE
Envisat 3.1 20:59:41 10° SSE 21:04:39 60° ENE 21:09:41 10° N
GENESIS II 4.3 21:01:17 10° SW 21:05:20 90° W 21:09:25 10° NE
Cosmos 1867 3.7 21:00:18 10° NNW 21:05:47 70° NE 21:11:12 10° SE
Cosmos 2242 Rocket 3.6 21:01:35 10° S 21:06:05 88° E 21:10:35 10° N
USA 234 3.5 21:00:13 10° ESE 21:06:43 69° NNE 21:13:13 10° NW
ATLAS 5 CENTAUR R/B 2.5 21:04:19 10° NW 21:10:16 88° NE 21:16:46 10° SE
H-2A R/B 4.0 21:10:28 10° E 21:12:44 13° ENE 21:14:59 10° NNE
Cosmos 2322 4.1 21:13:36 10° S 21:18:56 42° ESE 21:24:16 10° NE
Cosmos 2279 Rocket 4.0 21:14:57 10° S 21:21:11 83° E 21:27:26 10° N
ARGOS 4.3 21:18:59 11° ESE 21:23:12 27° ENE 21:27:38 10° N
Intercosmos 25 Rocket 3.7 21:20:03 10° SSW 21:23:24 71° W 21:28:08 10° N
SL-16 R/B 2.7 21:18:28 10° SW 21:24:07 67° WNW 21:29:47 10° NNE
ERS-1 Rocket 3.4 21:22:02 10° SE 21:26:48 47° ENE 21:31:37 10° N
SeaSat 1 3.9 21:24:45 10° E 21:28:40 25° NE 21:32:40 10° N
Resurs 01 Rocket 3.5 21:24:56 10° SSW 21:28:52 31° W 21:32:51 10° NNW
H-2A R/B 4.3 21:32:19 10° ENE 21:33:16 11° NE 21:34:13 10° NE
YAOGAN 6 2.7 21:32:38 13° SSE 21:35:44 57° ENE 21:39:17 10° N
Cosmos 1908 Rocket 3.5 21:31:33 10° N 21:35:54 71° E 21:40:10 10° SSE
Cosmos 2237 Rocket 4.1 21:40:20 11° E 21:40:20 11° E 21:41:48 10° E
Cosmos 1844 Rocket 3.2 21:35:04 10° NNW 21:40:25 45° ENE 21:44:25 17° ESE
Cosmos 2278 Rocket 3.7 21:37:04 10° N 21:41:37 24° NE 21:45:29 12° E
SPOT 5 3.6 21:39:13 16° ESE 21:42:18 34° ENE 21:46:24 10° N
Sich 1 Rocket 3.6 21:38:09 10° N 21:42:39 83° E 21:47:08 10° S
Cosmos 1933 3.8 21:39:10 10° SSW 21:43:09 62° W 21:47:10 10° N
Cosmos 2333 Rocket 3.6 21:41:57 16° ESE 21:43:18 17° E 21:46:54 10° ENE
NOSS 3-1 (C) 4.3 21:42:38 10° SSE 21:47:13 25° ESE 21:52:10 10° ENE
MetOp-A 4.3 21:45:47 16° SE 21:49:54 56° ENE 21:55:09 10° N
Cosmos 1782 Rocket 3.6 21:46:11 10° N 21:50:32 60° E 21:53:36 19° SSE
CZ-4C R/B 3.6 21:44:38 10° NNW 21:51:02 40° NE 21:57:01 14° ESE
USA 229 DEB 3.7 21:46:21 10° SSW 21:53:04 65° ESE 21:59:57 10° NE
USA 229 3.7 21:46:28 10° SSW 21:53:11 64° ESE 22:00:04 10° NE
Meteor 2-10 Rocket 3.8 21:51:25 10° SSW 21:57:15 84° W 22:03:01 10° N
Cosmos 1777 Rocket 4.0 21:53:16 10° NNW 21:58:35 73° ENE 22:02:06 21° SSE
SPOT 1/Viking Rocket 4.3 21:57:12 21° ESE 22:00:08 39° ENE 22:04:56 10° N
Okean 1-7 3.2 21:57:49 16° SSE 22:01:08 54° E 22:05:26 10° NNE
USA 245 4.2 21:58:55 21° SE 22:02:23 52° ENE 22:06:52 10° N
NOSS 3-1 (A) 4.3 22:02:34 22° SE 22:03:57 24° ESE 22:08:51 10° ENE
Cosmos 2219 Rocket 2.9 22:01:36 21° SE 22:04:10 30° ESE 22:09:01 10° NE
Okean 2 Rocket 3.2 22:01:18 10° N 22:05:49 63° ENE 22:08:18 25° SSE
Cosmos 1782 3.4 22:05:58 29° SE 22:07:13 37° E 22:10:57 10° NNE
Cosmos 2084 4.0 22:08:40 10° NNW 22:12:18 40° NE 22:13:51 27° E
Cosmos 1633 3.7 22:09:55 10° NNE 22:13:06 27° ENE 22:13:34 26° E
USA 267 4.0 22:07:21 10° NE 22:13:43 56° NNW 22:20:04 10° WSW
Cosmos 1346 Rocket 4.1 22:22:04 24° E 22:22:04 24° E 22:24:55 10° NE
Cosmos 2263 Rocket 4.3 22:18:18 10° NW 22:22:24 21° W 22:26:29 10° SSW
Terra 2.9 22:23:55 25° E 22:25:19 30° ENE 22:29:27 10° N
Cosmos 1703 Rocket 4.2 22:21:34 10° SSW 22:25:55 56° WNW 22:30:16 10° N
Abrixas rocket 2.4 22:23:44 10° WNW 22:27:01 65° NNE 22:27:47 46° ENE
ATLAS 3B R/B 4.5 22:23:23 10° NNW 22:28:51 24° NNE 22:34:07 10° ENE
Meteor 1-27 Rocket 4.3 22:29:01 31° SE 22:30:32 37° E 22:35:37 10° NNE
H-2A R/B 4.4 16:36:31 10° SW 22:37:59 39° SSW 22:43:18 26° SSE
Cosmos 2237 4.5 22:32:19 10° SW 22:38:01 71° WNW 22:43:46 10° NNE
Cosmos 2151 Rocket 3.5 22:35:46 10° N 22:40:13 71° E 22:41:22 48° SSE
CARTOSAT-1 4.3 22:40:03 35° E 22:40:43 37° ENE 22:44:44 10° N
Atlas Centaur 2 4.0 22:38:48 10° SW 22:44:10 23° S 22:44:39 23° S
Cosmos 2360 Rocket 3.6 22:39:45 10° SW 22:45:02 40° NW 22:50:23 10° NNE
Cosmos 1745 Rocket 4.3 22:39:03 10° N 22:45:14 52° ENE 22:47:32 36° SE
COSMOS 2428 2.8 22:41:44 10° SSW 22:47:26 76° WNW 22:53:10 10° NNE
IGS 5A 4.1 22:47:17 38° E 22:47:38 39° ENE 22:51:32 10° N
USA 234 4.0 22:46:49 26° S 22:49:58 42° SW 22:56:08 10° WNW
H-2A R/B 1.8 22:49:47 44° SSE 22:51:26 87° ENE 22:56:23 10° NNW
Meteor 1-10 Rocket 4.3 22:48:39 23° S 22:52:27 89° WNW 22:58:19 10° N
Cosmos 1606 2.7 22:52:07 57° SSW 22:52:48 78° W 22:56:36 10° N
ATLAS 5 CENTAUR R/B 4.4 22:50:11 10° WNW 22:54:28 20° WSW 22:58:49 10° SSW
Meteor 1-11 Rocket 3.7 22:48:58 10° N 22:54:30 69° ENE 22:56:10 45° SE
Okean 1 Rocket 3.7 22:50:43 10° N 22:54:54 39° ENE 22:55:07 38° E
Cosmos 1844 3.9 22:50:40 10° NNW 22:56:17 65° WSW 22:58:23 38° S
Cosmos 1980 3.8 22:55:18 44° SE 22:56:19 50° ESE 23:01:46 10° NE
Cosmos 1674 Rocket 3.7 22:57:40 52° E 22:57:40 52° E 23:01:49 10° NNE
NOSS 0 Rocket 3.9 23:00:11 37° S 23:02:32 62° ESE 23:08:36 10° NNE
SL-16 R/B 3.6 23:04:06 21° E 23:04:06 21° E 23:07:11 10° NE
DMSP B5D2-2 4.1 22:57:47 10° NNE 23:03:01 61° E 23:04:01 51° SSE
ARGOS 3.8 23:00:30 27° SSW 23:03:10 48° W 23:08:24 10° NNW
MOS 1-B Rocket 4.4 23:00:07 27° SSW 23:03:10 54° W 23:08:40 10° NNW
Cosmos 1570 Rocket 3.9 23:03:08 32° SSW 23:05:40 88° WNW 23:11:00 10° NNE
SeaSat 1 2.7 23:04:32 44° S 23:05:52 59° WSW 23:10:46 10° NW
H-2A R/B 1.9 23:08:08 74° SE 23:08:30 83° ENE 23:12:53 10° NNW
Cosmos 1536 3.2 23:05:27 10° N 23:09:05 50° ENE 23:09:05 50° ENE
Cosmos 1937 Rocket 3.8 23:05:59 10° NNW 23:11:06 50° ENE 23:11:58 45° E
Cosmos 2208 Rocket 4.1 23:13:58 33° SSW 23:16:25 80° WNW 23:21:45 10° NNE
Cosmos 990 Rocket 4.3 23:14:45 10° NNW 23:19:46 49° ENE 23:20:23 47° E
SL-19 R/B 4.3 23:14:04 10° NNE 23:20:08 71° ESE 23:21:27 53° SSE
SPOT 5 4.3 23:18:27 22° SW 23:20:24 29° W 23:24:24 10° NW
Cosmos 1975 Rocket 4.5 23:23:12 27° ENE 23:23:12 27° ENE 23:26:02 10° NNE
CZ-4C R/B 4.4 23:23:25 35° NE 23:23:25 35° NE 23:26:00 10° N
Cosmos 858 Rocket 4.4 23:17:24 10° NNW 23:22:39 74° ENE 23:23:17 65° ESE
Cosmos 2237 Rocket 2.1 23:22:05 54° S 23:23:20 75° ESE 23:29:03 10° NNE
Cosmos 1844 Rocket 4.0 23:19:19 10° NW 23:24:07 30° WSW 23:26:05 24° SW
Cosmos 2278 Rocket 2.3 23:20:35 10° NNW 23:26:14 68° WSW 23:27:20 55° SSW
Cosmos 2333 Rocket 2.3 23:23:51 30° SW 23:26:50 79° WNW 23:32:40 10° NNE
Cosmos 2150 Rocket 4.0 23:23:27 10° NNW 23:28:55 73° ENE 23:29:37 64° ESE
Cosmos 1553 Rocket 4.1 23:26:20 37° SSW 23:28:58 75° W 23:35:12 10° N
Cosmos 1300 Rocket 3.6 23:25:13 10° NNW 23:29:33 67° W 23:29:37 67° WSW
Iridium 4 Rocket 3.0 23:25:45 10° N 23:29:42 77° NW 23:29:42 77° NW
ASTEX 1 3.8 23:34:29 50° SW 23:35:22 57° W 23:40:18 10° NNW
Cosmos 1898 Rocket 3.4 23:31:03 10° NNW 23:36:14 75° WSW 23:36:41 70° SSW
Cosmos 2315 Rocket 4.2 23:36:34 47° ESE 23:37:03 48° E 23:43:00 10° NNE
NOSS 3-1 (C) 3.7 23:31:33 10° SW 23:37:23 67° NW 23:44:02 10° NE
Gbstr 26 Del rocket 4.4 23:31:13 10° SW 23:38:58 63° SE 23:46:57 10° ENE
CZ-4C R/B 3.0 23:33:02 10° NW 23:40:04 65° WSW 23:42:13 48° S
Cosmos 1763 Rocket 4.3 23:41:41 38° ENE 23:41:41 38° ENE 23:45:38 10° NNE
Cosmos 2219 Rocket 3.1 23:43:11 13° SW 23:47:56 45° WNW 23:53:21 10° NNE
Meteor 1-5 Rocket 4.2 23:44:53 10° NNW 23:50:34 77° W 23:51:18 66° SSW
